EW5171 Weather Reports


time (UTC)temp
F
wind
direction
speed
knots
gust
knots
rain 1hr
in
rain 24hr
in
rain mn
in
humidity
%
barometer
mb
20260902133028 67 287 2.6 12.2 0.00 0.03 0.02 80 1013.1
20260902132527 67 179 1.7 7.8 0.00 0.03 0.02 82 1013.0
20260902132021 67 225 1.7 7.8 0.00 0.03 0.02 83 1013.1
20260902131520 66 172 2.6 8.7 0.00 0.03 0.02 83 1013.1
20260902131020 66 213 3.5 8.7 0.00 0.03 0.02 84 1013.1
20260902130520 66 216 2.6 9.6 0.00 0.03 0.02 83 1013.1
20260902130019 66 201 2.6 9.6 0.00 0.03 0.02 85 1013.2
20260902125520 65 191 2.6 9.6 0.00 0.03 0.02 87 1013.2
20260902125019 64 120 1.7 7.0 0.00 0.03 0.02 88 1013.3
20260902124519 64 268 2.6 7.8 0.00 0.03 0.02 88 1013.3
20260902124023 64 209 2.6 7.8 0.00 0.03 0.02 88 1013.4
20260902123518 64 163 0.9 6.1 0.00 0.03 0.02 88 1013.4
20260902123018 64 273 1.7 7.0 0.00 0.03 0.02 89 1013.4
20260902122518 64 286 1.7 9.6 0.00 0.03 0.02 89 1013.4
20260902122017 64 306 4.3 9.6 0.00 0.03 0.02 89 1013.4
20260902121516 64 213 1.7 7.0 0.00 0.03 0.02 90 1013.4
20260902121017 64 213 3.5 8.7 0.00 0.03 0.02 89 1013.5
20260902120518 64 118 0.9 8.7 0.00 0.03 0.02 90 1013.5
20260902120018 64 249 2.6 8.7 0.00 0.03 0.02 90 1013.5
20260902115516 63 195 2.6 7.8 0.00 0.04 0.02 90 1013.4
20260902115016 63 296 1.7 6.1 0.00 0.04 0.02 89 1013.4
20260902114516 63 306 2.6 7.8 0.00 0.04 0.02 89 1013.3
20260902114016 63 113 2.6 7.8 0.00 0.04 0.02 89 1013.3
20260902113515 64 198 0.9 4.3 0.00 0.04 0.02 89 1013.4
20260902113015 64 177 1.7 6.1 0.00 0.04 0.02 88 1013.5
20260902112515 64 257 1.7 6.1 0.00 0.04 0.02 87 1013.6
20260902112019 65 301 2.6 7.0 0.00 0.04 0.02 86 1013.6
20260902111519 65 161 1.7 7.8 0.00 0.04 0.02 85 1013.6
20260902111016 66 242 3.5 12.2 0.00 0.04 0.02 83 1013.6
20260902110516 66 273 3.5 12.2 0.00 0.04 0.02 83 1013.6
20260902110033 66 203 2.6 8.7 0.00 0.04 0.02 84 1013.6
20260902105515 65 261 4.3 8.7 0.00 0.05 0.02 85 1013.6
20260902105011 65 207 2.6 9.6 0.00 0.05 0.02 85 1013.7
20260902104520 64 256 1.7 9.6 0.00 0.05 0.02 85 1013.8
20260902104010 65 274 2.6 8.7 0.00 0.05 0.02 85 1013.8
20260902103510 65 196 2.6 10.4 0.00 0.05 0.02 85 1013.8
20260902103019 65 200 3.5 8.7 0.00 0.05 0.02 84 1013.8
20260902102510 65 189 1.7 7.8 0.00 0.05 0.02 85 1013.8
20260902102011 65 173 1.7 10.4 0.00 0.05 0.02 84 1013.8
20260902101510 65 313 3.5 10.4 0.00 0.05 0.02 84 1013.8
20260902101010 65 206 0.9 8.7 0.00 0.05 0.02 84 1013.9
20260902100509 65 219 2.6 8.7 0.00 0.05 0.02 83 1013.9
20260902100012 65 332 2.6 8.7 0.00 0.05 0.02 83 1014.0
20260902095508 65 208 2.6 8.7 0.00 0.05 0.02 84 1014.0
20260902095008 65 269 1.7 12.2 0.00 0.05 0.02 84 1013.9
20260902094509 65 175 3.5 12.2 0.00 0.05 0.02 83 1013.9
20260902094009 65 165 3.5 11.3 0.00 0.05 0.02 83 1013.9
20260902093507 65 175 3.5 9.6 0.00 0.05 0.02 84 1013.9
20260902093008 65 198 1.7 9.6 0.00 0.05 0.02 84 1013.9
20260902092507 65 278 2.6 7.8 0.00 0.05 0.02 84 1013.8
20260902092011 65 284 2.6 9.6 0.00 0.05 0.02 84 1013.8
20260902091507 65 202 1.7 9.6 0.00 0.05 0.02 84 1013.7
20260902091007 65 260 1.7 9.6 0.00 0.05 0.02 84 1013.6
20260902090509 65 288 2.6 8.7 0.00 0.05 0.02 84 1013.7
20260902090017 65 210 4.3 8.7 0.00 0.05 0.02 85 1013.6
20260902085505 64 286 1.7 8.7 0.00 0.06 0.02 86 1013.6
20260902085005 64 178 2.6 8.7 0.00 0.06 0.02 86 1013.7
20260902084505 64 175 0.9 8.7 0.00 0.06 0.02 85 1013.6
20260902084005 64 290 2.6 9.6 0.00 0.06 0.02 86 1013.6
20260902083505 64 239 2.6 11.3 0.00 0.06 0.02 85 1013.6
20260902083003 64 186 2.6 11.3 0.00 0.06 0.02 86 1013.7
20260902082503 64 244 3.5 9.6 0.00 0.06 0.02 86 1013.7
20260902082003 64 171 1.7 7.8 0.00 0.06 0.02 86 1013.6
20260902081503 64 205 2.6 7.8 0.00 0.06 0.02 86 1013.7
20260902081001 64 171 3.5 7.0 0.00 0.06 0.02 88 1013.6
20260902080600 63 205 1.7 6.1 0.00 0.06 0.02 88 1013.6
20260902080059 63 264 1.7 9.6 0.00 0.06 0.02 89 1013.7
20260902075601 63 184 2.6 9.6 0.00 0.06 0.02 90 1013.7
20260902075057 63 308 0.9 5.2 0.00 0.06 0.02 91 1013.6
20260902074556 63 308 1.7 8.7 0.00 0.06 0.02 91 1013.5
20260902074055 62 202 3.5 8.7 0.00 0.06 0.02 91 1013.5
20260902073555 62 321 2.6 7.0 0.00 0.06 0.02 92 1013.5
20260902073054 62 298 1.7 8.7 0.00 0.06 0.02 93 1013.6
20260902072552 62 215 1.7 9.6 0.00 0.06 0.02 93 1013.5
20260902072052 61 331 1.7 8.7 0.00 0.06 0.02 93 1013.6
20260902071551 61 219 0.0 4.3 0.00 0.06 0.02 93 1013.6
20260902071051 61 285 1.7 4.3 0.00 0.06 0.02 94 1013.5
20260902070549 61 99 0.9 5.2 0.00 0.06 0.02 94 1013.5
20260902070050 61 200 0.9 7.8 0.00 0.06 0.02 94 1013.5
20260902065552 61 228 0.9 4.3 0.00 0.06 0.02 94 1013.4
20260902065051 61 216 0.9 4.3 0.00 0.06 0.02 94 1013.3
20260902064549 61 179 0.9 5.2 0.00 0.06 0.02 95 1013.4
20260902064048 60 197 0.9 5.2 0.00 0.06 0.02 95 1013.4
20260902063549 60 190 0.9 3.5 0.00 0.06 0.02 95 1013.4
20260902063055 60 155 0.9 3.5 0.00 0.06 0.02 95 1013.4
20260902062546 60 285 0.9 4.3 0.00 0.06 0.02 95 1013.4
20260902062046 59 247 1.7 5.2 0.00 0.06 0.02 95 1013.4
20260902061601 59 320 0.9 5.2 0.00 0.06 0.02 95 1013.4
20260902061048 59 228 0.9 3.5 0.00 0.06 0.02 95 1013.4
20260902060541 59 230 0.0 4.3 0.00 0.06 0.02 95 1013.5
20260902060043 59 202 1.7 4.3 0.00 0.06 0.02 95 1013.5
20260902055540 59 193 0.0 3.5 0.00 0.06 0.02 95 1013.5
20260902055039 59 292 0.9 3.5 0.00 0.06 0.02 95 1013.5
20260902054540 59 190 0.9 3.5 0.00 0.06 0.02 95 1013.5
20260902054039 59 196 0.9 3.5 0.00 0.06 0.02 95 1013.5
20260902053539 59 257 0.0 2.6 0.00 0.06 0.02 96 1013.5
20260902053040 59 217 0.0 3.5 0.00 0.06 0.02 95 1013.5
20260902052538 59 327 0.0 3.5 0.00 0.06 0.02 96 1013.4
20260902052036 58 194 1.7 4.3 0.00 0.06 0.02 96 1013.4
20260902051553 58 288 0.9 4.3 0.00 0.06 0.02 96 1013.4
20260902051034 58 290 0.9 4.3 0.00 0.06 0.02 95 1013.4
20260902050532 58 270 0.0 4.3 0.00 0.06 0.02 96 1013.3
20260902050033 58 283 0.9 4.3 0.00 0.06 0.02 95 1013.3
20260902045531 58 298 0.9 5.2 0.00 0.06 0.02 95 1013.3
20260902045031 58 195 0.9 2.6 0.00 0.06 0.02 95 1013.2
20260902044558 58 259 0.0 3.5 0.00 0.06 0.02 95 1013.2
20260902044032 58 211 0.9 3.5 0.00 0.06 0.02 95 1013.2
20260902043529 57 255 0.0 2.6 0.00 0.06 0.02 95 1013.2
20260902043031 57 279 0.0 2.6 0.00 0.06 0.02 95 1013.2
20260902042527 57 175 0.0 3.5 0.00 0.06 0.02 95 1013.2
20260902042028 57 190 0.9 3.5 0.00 0.06 0.02 95 1013.2
20260902041532 57 219 0.0 2.6 0.00 0.06 0.02 95 1013.3
20260902041025 57 295 0.0 2.6 0.00 0.06 0.02 95 1013.3
20260902040525 57 205 0.0 3.5 0.00 0.06 0.02 95 1013.3
20260902040028 57 203 0.9 3.5 0.00 0.06 0.02 95 1013.3
20260902035525 57 198 0.9 1.7 0.00 0.06 0.02 95 1013.4
20260902035027 57 213 0.0 1.7 0.01 0.06 0.02 95 1013.4
20260902034524 57 213 0.0 3.5 0.01 0.06 0.02 95 1013.4
20260902034022 57 296 0.0 3.5 0.01 0.06 0.02 95 1013.4
20260902033522 57 315 0.0 2.6 0.01 0.06 0.02 95 1013.4
20260902033022 57 185 0.9 2.6 0.01 0.06 0.02 95 1013.4
20260902032526 57 260 0.0 2.6 0.01 0.06 0.02 95 1013.5
20260902032020 57 202 0.0 3.5 0.01 0.06 0.02 95 1013.4
20260902031538 57 227 0.9 3.5 0.01 0.06 0.02 95 1013.4
20260902031019 57 233 0.0 3.5 0.01 0.06 0.02 95 1013.5
20260902030522 57 230 0.0 4.3 0.01 0.06 0.02 95 1013.6
20260902030018 56 213 0.0 4.3 0.01 0.06 0.02 95 1013.7
20260902025518 56 237 0.0 1.7 0.01 0.07 0.02 94 1013.7
20260902025018 56 237 0.0 2.6 0.00 0.06 0.01 95 1013.7
20260902024518 57 237 0.0 2.6 0.00 0.06 0.01 95 1013.8
20260902024017 57 151 0.9 3.5 0.00 0.06 0.01 95 1013.7
20260902023517 57 165 0.9 3.5 0.00 0.06 0.01 95 1013.7
20260902023022 57 209 0.0 4.3 0.00 0.06 0.01 95 1013.7
20260902022516 56 290 1.7 5.2 0.00 0.06 0.01 95 1013.6
20260902022016 56 304 0.9 3.5 0.00 0.06 0.01 95 1013.7
20260902021514 56 263 0.9 3.5 0.00 0.06 0.01 96 1013.7
20260902021014 56 185 0.0 3.5 0.00 0.06 0.01 95 1013.8
20260902020515 56 238 0.9 3.5 0.00 0.06 0.01 96 1013.8
20260902020013 56 238 0.9 3.5 0.00 0.06 0.01 96 1013.8
20260902015514 55 172 0.0 2.6 0.00 0.06 0.01 95 1013.9
20260902015013 55 219 0.0 3.5 0.00 0.06 0.01 95 1013.8
20260902014515 55 198 0.9 3.5 0.00 0.06 0.01 96 1013.8
20260902014012 55 188 0.0 3.5 0.00 0.06 0.01 95 1013.8
20260902013511 54 245 0.9 3.5 0.00 0.06 0.01 95 1013.8
20260902013013 54 192 0.0 1.7 0.00 0.06 0.01 95 1013.9
20260902012511 54 192 0.0 1.7 0.00 0.06 0.01 95 1013.8
20260902012010 54 214 0.0 1.7 0.00 0.06 0.01 95 1013.9
20260902011516 54 214 0.0 1.7 0.00 0.06 0.01 95 1013.9
20260902011010 54 261 0.0 2.6 0.00 0.06 0.01 95 1013.9
20260902010510 53 281 0.0 2.6 0.00 0.06 0.01 95 1013.9
20260902010009 53 232 0.0 1.7 0.00 0.06 0.01 95 1014.0
20260902005509 53 232 0.0 1.7 0.00 0.06 0.01 95 1014.0
20260902005009 53 232 0.0 2.6 0.00 0.06 0.01 95 1014.0
20260902004508 53 223 0.0 0.9 0.00 0.06 0.01 94 1014.0
20260902004007 52 219 0.0 2.6 0.00 0.06 0.01 94 1014.1
20260902003510 52 219 0.0 2.6 0.00 0.06 0.01 94 1014.1
20260902003007 52 207 0.0 0.9 0.00 0.06 0.01 94 1014.1
20260902002509 52 186 0.0 0.0 0.00 0.06 0.01 93 1014.1
20260902002007 52 186 0.0 0.0 0.00 0.06 0.01 93 1014.2
20260902001506 52 186 0.0 0.0 0.00 0.06 0.01 93 1014.2
20260902001003 52 186 0.0 0.0 0.00 0.06 0.01 93 1014.2
20260902000503 52 186 0.0 0.0 0.00 0.06 0.01 93 1014.2
20260902000007 53 186 0.0 0.0 0.00 0.06 0.01 93 1014.2
20260901235501 53 186 0.0 0.0 0.00 0.07 0.01 93 1014.3
20260901235000 53 186 0.0 0.0 0.00 0.07 0.01 92 1014.3
20260901234608 53 186 0.0 0.0 0.00 0.07 0.01 92 1014.3
20260901234104 53 186 0.0 0.0 0.00 0.07 0.01 92 1014.2
20260901233558 54 186 0.0 0.9 0.00 0.07 0.01 92 1014.3
20260901233057 54 186 0.0 0.9 0.00 0.07 0.01 92 1014.3
20260901232557 54 186 0.0 1.7 0.01 0.07 0.01 93 1014.3
20260901232059 54 186 0.0 1.7 0.01 0.07 0.01 92 1014.4
20260901231605 54 269 0.0 1.7 0.01 0.07 0.01 92 1014.4
20260901231054 54 113 0.0 2.6 0.01 0.07 0.01 92 1014.5
20260901230555 54 246 0.0 1.7 0.01 0.07 0.01 92 1014.5
20260901230106 54 274 0.0 1.7 0.01 0.07 0.01 92 1014.5
20260901225553 55 247 0.0 2.6 0.01 0.07 0.01 92 1014.5
20260901225053 55 188 0.9 2.6 0.01 0.07 0.01 92 1014.4
20260901224554 55 276 0.0 3.5 0.01 0.07 0.01 91 1014.4
20260901224058 55 286 0.0 5.2 0.01 0.07 0.01 92 1014.5
20260901223556 55 313 0.9 2.6 0.01 0.07 0.01 91 1014.6
20260901223051 55 298 0.0 3.5 0.01 0.07 0.01 91 1014.5
20260901222551 55 320 0.9 4.3 0.00 0.06 0.00 91 1014.5
20260901222050 55 218 0.0 4.3 0.00 0.06 0.00 91 1014.4
20260901221604 56 307 0.9 1.7 0.00 0.06 0.00 91 1014.4
20260901221048 56 206 0.0 3.5 0.00 0.06 0.00 91 1014.3
20260901220548 56 272 0.0 6.1 0.00 0.06 0.00 91 1014.3
20260901220045 56 225 0.9 6.1 0.00 0.06 0.00 90 1014.3
20260901215545 56 279 0.9 5.2 0.00 0.06 0.06 91 1014.3
20260901215045 56 286 0.9 7.0 0.00 0.06 0.06 91 1014.3
20260901214544 56 278 2.6 7.0 0.00 0.06 0.06 91 1014.4
20260901214045 56 261 2.6 7.0 0.00 0.06 0.06 91 1014.4
20260901213546 57 322 0.9 7.8 0.00 0.06 0.06 91 1014.4
20260901213048 57 182 2.6 8.7 0.00 0.06 0.06 91 1014.4
20260901212643 57 240 0.9 8.7 0.00 0.06 0.06 91 1014.4
20260901212043 57 273 0.9 2.6 0.00 0.06 0.06 91 1014.3
20260901211543 57 177 0.0 3.5 0.00 0.06 0.06 91 1014.3
20260901211042 57 296 0.0 3.5 0.00 0.06 0.06 91 1014.3
20260901210545 57 286 0.9 4.3 0.00 0.06 0.06 91 1014.2
20260901210042 57 355 0.9 4.3 0.00 0.06 0.06 91 1014.2
20260901205543 57 308 0.0 6.1 0.00 0.06 0.06 91 1014.2
20260901205040 57 213 1.7 6.1 0.00 0.06 0.06 92 1014.2
20260901204541 57 279 0.9 3.5 0.00 0.06 0.06 91 1014.1
20260901204043 57 223 0.9 2.6 0.00 0.06 0.06 91 1014.1
20260901203543 57 299 0.0 2.6 0.00 0.06 0.06 91 1014.1
20260901203045 56 292 0.0 2.6 0.00 0.06 0.06 91 1014.1
20260901202538 56 288 0.0 1.7 0.00 0.06 0.06 90 1014.0
20260901202041 57 297 0.0 1.7 0.00 0.06 0.06 90 1014.0
20260901201545 57 169 0.0 1.7 0.00 0.06 0.06 90 1014.0
20260901201039 57 261 0.0 0.9 0.00 0.06 0.06 89 1014.0
20260901200537 57 261 0.0 0.9 0.00 0.06 0.06 89 1014.0
20260901200037 57 261 0.0 1.7 0.00 0.06 0.06 89 1014.0
20260901195537 58 261 0.0 1.7 0.00 0.06 0.06 89 1013.9
20260901195039 58 265 0.0 2.6 0.00 0.06 0.06 89 1013.9
20260901194536 58 136 0.9 2.6 0.00 0.06 0.06 88 1013.9
20260901194036 58 222 0.0 2.6 0.00 0.06 0.06 88 1013.9
20260901193536 58 222 0.0 2.6 0.00 0.06 0.06 88 1013.9
20260901193035 58 253 0.0 0.9 0.00 0.06 0.06 87 1013.9
20260901192537 58 254 0.0 1.7 0.00 0.06 0.06 87 1013.8
20260901192035 59 264 0.0 1.7 0.00 0.06 0.06 87 1013.7
20260901191541 59 264 0.0 1.7 0.00 0.06 0.06 86 1013.7
20260901191034 59 264 0.0 1.7 0.00 0.06 0.06 86 1013.7
20260901190533 59 264 0.0 1.7 0.00 0.06 0.06 85 1013.7
20260901190037 60 264 0.0 1.7 0.00 0.06 0.06 85 1013.7
20260901185532 60 264 0.0 1.7 0.00 0.06 0.06 85 1013.6
20260901185031 60 267 0.0 1.7 0.00 0.06 0.06 84 1013.6
20260901184531 61 285 0.0 3.5 0.00 0.06 0.06 83 1013.5
20260901184033 61 285 0.0 3.5 0.00 0.06 0.06 83 1013.4
20260901183533 61 263 0.0 2.6 0.00 0.06 0.06 82 1013.4
20260901183055 61 267 0.9 2.6 0.00 0.06 0.06 82 1013.4
20260901182530 61 269 0.0 2.6 0.00 0.06 0.06 81 1013.3
20260901182030 62 166 0.0 7.0 0.00 0.06 0.06 81 1013.3
20260901181529 62 270 1.7 6.1 0.00 0.06 0.06 81 1013.3
20260901181028 62 287 1.7 6.1 0.00 0.06 0.06 80 1013.2
20260901180528 62 209 0.0 4.3 0.00 0.06 0.06 80 1013.2
20260901180028 62 312 1.7 4.3 0.00 0.06 0.06 79 1013.1
20260901175526 62 264 0.9 3.5 0.00 0.06 0.06 79 1013.1
20260901175027 62 148 0.9 3.5 0.00 0.06 0.06 79 1013.1
20260901174527 62 101 0.0 4.3 0.00 0.06 0.06 79 1013.0
20260901174027 62 269 0.9 4.3 0.00 0.06 0.06 79 1013.1
20260901173527 63 247 0.9 4.3 0.00 0.06 0.06 78 1013.1
20260901173028 63 163 0.9 6.1 0.00 0.06 0.06 78 1013.1
20260901172526 63 317 0.9 7.0 0.00 0.06 0.06 77 1013.0
20260901172026 63 287 1.7 7.0 0.00 0.06 0.06 77 1013.0
20260901171531 63 219 0.9 4.3 0.00 0.06 0.06 77 1013.1
20260901171029 63 84 0.9 4.3 0.00 0.06 0.06 76 1013.0
20260901170524 63 327 0.9 7.8 0.00 0.06 0.06 76 1012.9
20260901170039 63 209 0.9 7.8 0.00 0.06 0.06 75 1012.9
20260901165522 64 293 2.6 9.6 0.00 0.06 0.06 74 1012.8
20260901165022 64 338 1.7 9.6 0.00 0.06 0.06 74 1012.8
20260901164521 65 264 3.5 9.6 0.00 0.06 0.06 73 1012.7
20260901164020 65 115 1.7 9.6 0.00 0.06 0.06 72 1012.7
20260901163520 65 104 0.9 8.7 0.00 0.06 0.06 73 1012.6
20260901163027 66 310 1.7 8.7 0.01 0.06 0.06 72 1012.6
20260901162520 66 17 1.7 7.0 0.01 0.06 0.06 74 1012.5
20260901162024 66 272 1.7 7.0 0.01 0.06 0.06 74 1012.5
20260901161519 65 267 0.9 8.7 0.01 0.06 0.06 75 1012.5
20260901161019 65 263 1.7 10.4 0.01 0.06 0.06 73 1012.5
20260901160518 66 310 0.9 7.8 0.01 0.06 0.06 74 1012.4
20260901160017 66 236 1.7 7.8 0.01 0.06 0.06 74 1012.3
20260901155517 66 121 1.7 7.8 0.01 0.07 0.06 74 1012.3
20260901155017 66 309 0.0 7.8 0.01 0.07 0.06 75 1012.3
20260901154516 66 184 0.9 7.8 0.01 0.07 0.06 74 1012.3
20260901154021 66 270 1.7 6.1 0.01 0.07 0.06 73 1012.3
20260901153517 66 134 0.9 6.1 0.01 0.07 0.06 73 1012.2
20260901153015 67 182 1.7 6.1 0.00 0.06 0.06 72 1012.1
20260901152518 68 332 1.7 5.2 0.00 0.06 0.06 72 1012.1
20260901152018 68 281 1.7 4.3 0.00 0.06 0.06 71 1012.1
20260901151514 69 255 0.9 6.1 0.00 0.06 0.06 70 1012.0
20260901151015 69 203 0.9 6.1 0.00 0.06 0.06 71 1012.0
20260901150513 69 115 1.7 9.6 0.00 0.06 0.06 70 1012.0
20260901150014 69 273 0.9 7.8 0.00 0.06 0.06 71 1012.0
20260901145513 69 154 1.7 7.0 0.00 0.07 0.06 71 1011.9
20260901145012 68 257 1.7 7.8 0.00 0.07 0.06 72 1011.9
20260901144512 68 279 1.7 7.8 0.00 0.07 0.06 72 1011.9
20260901144015 68 263 1.7 7.8 0.01 0.07 0.06 71 1012.0
20260901143514 68 276 2.6 7.8 0.01 0.07 0.06 71 1011.9
20260901143013 68 83 0.9 7.0 0.01 0.07 0.06 71 1011.9
20260901142510 69 257 1.7 7.0 0.01 0.07 0.06 71 1011.9
20260901142010 69 206 0.9 9.6 0.01 0.07 0.06 70 1011.9
20260901141510 69 193 3.5 9.6 0.01 0.07 0.06 69 1011.8
20260901141013 69 291 0.9 6.1 0.01 0.07 0.06 69 1011.8
20260901140509 70 288 1.7 6.1 0.01 0.07 0.06 69 1011.8
20260901140011 70 107 1.7 6.1 0.01 0.07 0.06 69 1011.8
20260901135511 70 315 0.9 6.1 0.01 0.07 0.06 69 1011.7
20260901135009 70 217 1.7 6.1 0.01 0.07 0.06 69 1011.8
20260901134510 69 194 0.0 4.3 0.01 0.07 0.06 70 1011.8
20260901134007 70 59 1.7 6.1 0.00 0.06 0.05 69 1011.7
20260901133507 70 208 0.9 6.1 0.00 0.06 0.05 70 1011.7